ATLAS CENTAUR 2 DEB, 2886

Orbit data source: Space-Track

ATLAS CENTAUR 2 DEB, 2886 is space debris in LEO originally from a launch on Wed, 27 Nov 1963 UTC launched from the Air Force Eastern Test Range (AFETR). Debris objects in space refer to the collection of defunct objects orbiting the Earth. Examples of debris include non-operational satellites, rocket bodies, and fragments generated from explosions, collisions, or faulty payload assembly.

Loading next visibility...
ATLAS CENTAUR 2 DEB details
Identifier
2886, 1963-047K
Orbit
LEO
Last TLE update12 hours ago
Origin
Flag of USNASA LeRC (US)
ManufacturerUnknown
MissionSpacecraft
Bus & MotorUnknown
MassUnknown
Launch date (UTC)
1963-11-27 (61 years ago)
Launch vehicleUnknown
Launch site
Air Force Eastern Test Range (AFETR)
Object type
Payload
Rocket body
Debris
Shape & HBRUnknown
Radar Cross SectionSmall (<0.1 m²)

Expand to show TLE details & history

TLE from 12 hours ago
0 ATLAS CENTAUR 2 DEB
1 02886U 63047K   25013.84877498  .00000456  00000-0  25967-3 0  9997
2 02886  29.8693 209.3330 0643857 157.5655 205.4437 13.29805344807032
Epoch: 2025-01-13T20:22Z
Definitive object data (Epoch: 2025-01-13T20:22:14.158Z)
Latitude0.00001°
Longitude150.21009°
Altitude1,588.753 km
Speed6.866 km/s
True Right ascension13h 57m 19s
True Declination0° 00' 00"
Sunlit
Object was in daylight at TLE epoch
Visualization TLE readout
Latitude-17.05352°
Longitude115.56912°
Altitude1,608.968 km
Speed6.848 km/s
Apparent Right ascension14h 08m 40s
Apparent Declination-54° 49' 36"
Sunlit
Object is in daylight
Visualization observer readout
Local Sidereal Time09:22:28
Azimuth143.701° SSE
Elevation-22.624°
Doppler factor1
Orbital elements
Apogee altitude1,635.983 km
Perigee altitude666.42 km
Semi-major axis7,529.338 km
Eccentricity0.0643857
Inclination29.8693°
RAAN209.333°
Arg. of periapsis157.5655°
True anomaly202.49049°
Mean anomaly205.4437°
Eccentric anomaly203.94639°
Mean motion3.32206 °/min
BSTAR0.00025967
Orbital period108.37 mins
Loading maneuver chart data...

ATLAS CENTAUR 2 DEB Visibility forecast

Observer location: undefined°, undefined

Span
Click to sort rows by Start time (UTC) header in descending order
Start Az.
Max El. time (UTC)
Max El. Az.
Max El.
End time (UTC)
End Az.
6 mins2025-01-14 14:32:38.864Z172.251° S2025-01-14 14:35:38.864Z152.606° SSE12.443°2025-01-14 14:38:38.864Z131.576° SE
10 mins2025-01-14 16:25:38.864Z208.253° SW2025-01-14 16:30:38.864Z164.711° S24.221°2025-01-14 16:35:38.864Z115.552° SE
10 mins2025-01-14 18:20:38.864Z232.902° WSW2025-01-14 18:25:38.864Z177.28° S29.883°2025-01-14 18:30:38.864Z117.598° SE
8 mins2025-01-14 20:15:38.864Z244.682° WSW2025-01-14 20:19:38.864Z201.766° SSW24.562°2025-01-14 20:23:38.864Z145.274° SSE
|